Location: Unspecified
(0.0000°N, 0.0000°E)
Time: 09:50:23
(UTC+00:00)

Envisat - Pass Details

Date: 18 April 2018
Orbit: 764 x 766 km, 98.2° (Epoch: 18 July)

Event Time Altitude Azimuth Distance (km) Brightness Sun altitude
Exits shadow 19:11:32 24° 67° (ENE) 1,528 4.1 -17.7°
Drops below altitude 10° 19:15:01 10° 24° (NNE) 2,290 5.3 -18.6°
Sets 19:17:40 0° 11° (N) 3,213 6.2 -19.2°
